Flag for U.S.A. Weather past 2 weeks in Citrus Heights, California, U.S.A.

Now
86 °F

Sunny.


Feels Like: 83 °F
Forecast: 67 / 100 °F
Wind: 7 mph from Southwest

Location: Mather Field

Current Time: Jul 25, 2014 at 9:14:16 PM

Latest Report: Jul 25, 2014 at 8:50 PM


Visibility: 10 mi

Pressure: 29.79 "Hg

Humidity: 25%

Dew point: 46 °F

Location of Citrus HeightsLocation

Historic Weather in Citrus Heights — Graph

°F

Citrus Heights temperature yesterday

Maximum temperature yesterday: 95 °F (at 5:45 PM)
Minimum temperature yesterday: 59 °F (at 2:47 AM)
Average temperature yesterday: 77 °F

Past Weeks' High & Low Weather Summary

 TemperatureHumidityPressure
High106 °F (Jul 14, 3:55 PM)100% (Jul 19, 4:55 AM)30.13 "Hg (Jul 19, 4:55 AM)
Low55 °F (Jul 23, 5:46 AM)8% (Jul 25, 7:45 PM)29.77 "Hg (Jul 25, 5:55 PM)
Average75 °F55%29.93 "Hg
* Reported Jul 10 7:50 PM — Jul 25 7:45 PM, Citrus Heights, Weather by CustomWeather, © 2014

Note: Actual official high and low records may vary slightly from our data, if they occured in-between our weather recording intervals... More about our weather records

Advertising

Citrus Heights weather history for previous 24 hours

 ConditionsComfort  
Time TempWeatherWind HumidityBarometerVisibility
7:45 PM
Jul 25
99 °FSunny.5 mph8%29.77 "Hg10 mi
6:55 PM100 °FSunny.5 mph9%29.77 "Hg10 mi
5:55 PM102 °FSunny.5 mph11%29.77 "Hg10 mi
3:55 PM100 °FSunny.6 mph13%29.80 "Hg10 mi
2:50 PM99 °FSunny.3 mph12%29.81 "Hg10 mi
1:50 PM97 °FSunny.5 mph14%29.83 "Hg10 mi
12:55 PM93 °FSunny.No wind20%29.84 "Hg10 mi
11:47 AM90 °FSunny.6 mph26%29.85 "Hg10 mi
10:46 AM86 °FSunny.3 mph31%29.86 "Hg10 mi
9:45 AM82 °FSunny.5 mph32%29.87 "Hg10 mi
8:46 AM81 °FSunny.No wind34%29.86 "Hg10 mi
7:59 AM75 °FSunny.No wind39%29.85 "Hg10 mi
5:45 AM63 °FClear.3 mph59%29.82 "Hg10 mi
4:55 AM63 °FClear.6 mph59%29.81 "Hg10 mi
3:55 AM66 °FClear.5 mph52%29.80 "Hg10 mi
11:45 PM
Jul 24
72 °FClear.3 mph50%29.81 "Hg10 mi
10:45 PM75 °FClear.5 mph44%29.81 "Hg10 mi
9:45 PM77 °FClear.7 mph32%29.80 "Hg10 mi
Weather by CustomWeather, © 2014

See weather overviewHow to use our weather pages